This is the latest recevied weather packets stored in our database for station/object KD7AWQ. If no packets are shown the sender has not sent any weather packets the latest 10 day(s).
| Time | Temp. | Humidity | Pressure | Rain* | Wind** | Luminosity | Snow |
|---|---|---|---|---|---|---|---|
| 1777914440 | 22.22° C | 22% | 1183.8 hPa | 0 mm | - | 823 W/m² | - |
| 1777914137 | 22.22° C | 21% | 1183.6 hPa | 0 mm | - | 880 W/m² | - |
| 1777913833 | 22.22° C | 23% | 1183.8 hPa | 0 mm | - | 822 W/m² | - |
| 1777913529 | 22.22° C | 21% | 1184 hPa | 0 mm | - | 723 W/m² | - |
| 1777913227 | 22.22° C | 22% | 1183.7 hPa | 0 mm | - | 781 W/m² | - |
| 1777912923 | 22.22° C | 21% | 1183.9 hPa | 0 mm | - | 869 W/m² | - |
| 1777912619 | 21.67° C | 23% | 1183.9 hPa | 0 mm | - | 770 W/m² | - |
| 1777912316 | 21.67° C | 24% | 1184 hPa | 0 mm | - | 499 W/m² | - |
| 1777912011 | 21.11° C | 25% | 1184.1 hPa | 0 mm | - | 754 W/m² | - |
| 1777911707 | 21.11° C | 23% | 1183.7 hPa | 0 mm | - | 742 W/m² | - |
| 1777911404 | 21.11° C | 24% | 1183.6 hPa | 0 mm | - | 586 W/m² | - |
| 1777911102 | 20.56° C | 24% | 1183.7 hPa | 0 mm | - | 743 W/m² | - |
| 1777910799 | 21.11° C | 25% | 1183.8 hPa | 0 mm | - | 522 W/m² | - |
| 1777910496 | 20.56° C | 23% | 1183.9 hPa | 0 mm | - | 545 W/m² | - |
| 1777910192 | 20.56° C | 24% | 1183.7 hPa | 0 mm | - | 635 W/m² | - |
| 1777909890 | 21.11° C | 24% | 1183.8 hPa | 0 mm | - | 540 W/m² | - |
| 1777909586 | 20.56° C | 24% | 1183.9 hPa | 0 mm | - | 520 W/m² | - |
| 1777909284 | 21.11° C | 24% | 1184.1 hPa | 0 mm | - | 645 W/m² | - |
| 1777908982 | 20.56° C | 25% | 1183.9 hPa | 0 mm | - | 607 W/m² | - |
| 1777908680 | 20° C | 26% | 1183.9 hPa | 0 mm | - | 476 W/m² | - |
| 1777908376 | 20° C | 26% | 1183.8 hPa | 0 mm | - | 502 W/m² | - |
| 1777908072 | 20° C | 25% | 1183.9 hPa | 0 mm | - | 377 W/m² | - |
| 1777907768 | 20° C | 26% | 1184 hPa | 0 mm | - | 474 W/m² | - |
| 1777907463 | 20° C | 26% | 1184 hPa | 0 mm | - | 466 W/m² | - |
| 1777907161 | 20° C | 27% | 1184.1 hPa | 0 mm | - | 386 W/m² | - |
* Rain latest hour (hover to see other rain measurements)
** Current wind speed in m/s (hover to see current wind gust speed)